Location: Heidgraben
(53.7081°N, 9.6576°E)
Time: 04:18:27
(UTC+00:00)

Lacrosse 5 rocket - Pass Details

Date: 05 July 2020
Orbit: 464 x 632 km, 57.0° (Epoch: 06 August)

Event Time Altitude Azimuth Distance (km) Brightness Sun altitude
Rises 22:53:46 0° 292° (WNW) 2,742 5.3 -13.3°
Reaches altitude 10° 22:56:04 10° 294° (WNW) 1,816 4.4 -13.3°
Maximum altitude 23:00:09 77° 20° (NNE) 541 1.3 -13.4°
Drops below altitude 10° 23:04:01 10° 107° (ESE) 1,711 3.6 -13.5°
Sets 23:06:08 0° 109° (ESE) 2,569 4.5 -13.5°
Enters shadow 23:06:13 - 109° (ESE) 2,608 4.5 -13.5°
